Location: Unspecified
(27.6129°N, 0.0000°E)
Time: 09:52:57
(UTC+00:00)

CZ-6A DEB - Visible Passes

Search period start: 04 April 2026 00:00
Search period end: 14 April 2026 00:00
Orbit: 782 x 993 km, 89.0° (Epoch: 28 March)

Date Brightness Start Highest point End Pass type
(mag) Time Alt. Az. Time Alt. Az. Time Alt. Az.
4 Apr ? 04:35:13 10° E 04:36:24 11° ENE 04:37:34 10° ENE visible
4 Apr ? 18:48:41 10° NNW 18:52:51 25° W 18:57:02 10° SW visible
5 Apr ? 04:33:27 10° E 04:35:22 12° ENE 04:37:16 10° ENE visible
5 Apr ? 18:47:48 10° NNW 18:51:48 23° W 18:55:50 10° SW visible
6 Apr ? 04:31:55 10° ESE 04:34:21 13° ENE 04:36:44 10° NE visible
6 Apr ? 18:46:56 10° NNW 18:50:46 21° W 18:54:37 10° SW visible
7 Apr ? 04:30:29 10° ESE 04:33:19 14° E 04:36:04 10° NE visible
7 Apr ? 18:46:04 10° NW 18:49:42 20° W 18:53:23 10° SW visible
8 Apr ? 04:29:07 10° ESE 04:32:16 15° E 04:35:21 10° NE visible
8 Apr ? 18:45:13 10° NW 18:48:39 18° W 18:52:07 10° WSW visible
9 Apr ? 04:27:48 10° ESE 04:31:14 16° E 04:34:35 10° NE visible
9 Apr ? 18:44:24 10° NW 18:47:35 17° W 18:50:49 10° WSW visible
10 Apr ? 04:26:31 10° ESE 04:30:11 17° E 04:33:46 10° NE visible
10 Apr ? 18:43:35 10° NW 18:46:31 15° W 18:49:29 10° WSW visible
11 Apr ? 04:25:15 10° ESE 04:29:09 18° E 04:32:56 10° NE visible
11 Apr ? 18:42:50 10° NW 18:45:27 14° W 18:48:06 10° WSW visible
12 Apr ? 04:24:00 10° SE 04:28:06 20° E 04:32:04 10° NE visible
12 Apr ? 18:42:06 10° NW 18:44:23 13° W 18:46:40 10° WSW visible
13 Apr ? 04:22:46 10° SE 04:27:03 21° E 04:31:11 10° NNE visible
